CZ-2D DEB, 44609

Orbit data source: Space-Track

CZ-2D DEB, 44609 is space debris in SSO originally from a launch on Mon, 09 Oct 2017 UTC launched from the Jiuquan Satellite Launch Center, China (JSC). Debris objects in space refer to the collection of defunct objects orbiting the Earth. Examples of debris include non-operational satellites, rocket bodies, and fragments generated from explosions, collisions, or faulty payload assembly.

Loading next visibility...
Identifier
44609, 2017-060B
Orbit
SSO
Country
Flag of CNCN / PRC
Related business
Manufacturer
Unknown
Mission
Spacecraft
Bus & Motor
Unknown
Mass
Unknown
Launch date (UTC)
2017-10-09 (8 years ago)
Launch vehicle
Unknown
Launch site
Jiuquan Satellite Launch Center, China (JSC)
Object type
Payload
Rocket body
Debris
Shape & HBR
Unknown
Radar Cross Section
Small (<0.1 m²)

Expand to show TLE details & history
Last TLE update: 1 day ago

TLE from 1 day ago
0 CZ-2D DEB
1 44609U 17060B   25242.02868875  .00006654  00000-0  58366-3 0  9998
2 44609  97.5591 264.8009 0032726 207.0439 152.9079 14.96536054421570
Epoch: 2025-08-30T00:41Z
TLE epoch observation values (Epoch: 2025-08-30T00:41:18.708Z)
Latitude
-0.00001°
Longitude
-83.99591°
Altitude
600.949 km
Speed
7.548 km/s
True Right ascension
17h 39m 12s
True Declination
0° 00' 00"
Sunlit
Object was in daylight at epoch
Visualization orbit readout
Latitude
Unknown
Longitude
Unknown
Altitude
Unknown
Speed
Unknown
Apparent Right ascension
Unknown
Apparent Declination
Unknown
Sunlit
N/A
Visualization observer readout
Local Sidereal Time
00:26:31
Azimuth
Unknown
Elevation
Unknown
Doppler factor
Unknown
Orbital elements
Apogee altitude
597.366 km
Perigee altitude
551.859 km
Semi-major axis
6,952.75 km
Eccentricity
0.00327
Inclination
97.5591°
RAAN
264.8009°
Arg. of periapsis
207.0439°
True anomaly
153.07807°
Mean anomaly
152.9079°
Eccentric anomaly
152.99305°
Mean motion
3.74376 °/min
Orbital period
96.16 mins
BSTAR
0.00058366
Loading maneuver chart data...
Computing Atmospheric mass density...
Loading historical data...
Loading historical data...
Loading historical data...
Loading historical data...
Loading historical data...
Loading historical data...
Loading historical data...
Other satellites on launch #60 in the year 2017 (2017-10-09 UTC)

Documentation

Showing up to 5 results
|